小惑星2008 BN18

2008 BN18

English version
Home page
Total 6,336 html files since Dec. 4, 1995
Updated on April 12, 2008

---------------------------------------------------------------------

・ プロフィール

発見日 2008年1月30日
発見光度
発見者 LPL/Spacewatch II

・ 軌道要素

The following orbital elements are taken from MPO136020

Epoch 2008 May 14.0 TT = JDT 2454600.5                  MPC
M 359.84716              (2000.0)            P               Q
n   0.00496543     Peri.  282.70660     -0.04982672     -0.99438162
a  34.0276182      Node   168.80976     +0.99554367     -0.04195270
e   0.9232215      Incl.   28.76688     -0.08006306     +0.09718624
P 198              H   13.8           G   0.15           U   5
From 36 observations 2008 Jan. 30-Feb. 24, mean residual 0".43.

・ 光度変化

        H = 13.8  G = 0.15

---------------------------------------------------------------------

軌道要素はMPCのEphemerides and Orbital Elementsに掲載されたものです。
光度グラフはComet for Windowsで作成したものです。

---------------------------------------------------------------------

Copyright(C) 1995-2008 Seiichi Yoshida (comet@aerith.net). All rights reserved.